Location: Pedro
(43.9050°N, 104.3408°W)
Time: 14:51:56
(UTC+00:00)

SO-50 - Pass Details

Date: 05 December 2023
Orbit: 608 x 660 km, 64.6° (Epoch: 02 March)

Event Time Altitude Azimuth Distance (km) Brightness Sun altitude
Exits shadow 11:25:12 11° 18° (NNE) 1,970 ? -29.9°
Drops below altitude 10° 11:25:27 10° 20° (NNE) 2,053 ? -29.9°
Sets 11:27:55 0° 30° (NNE) 2,956 ? -29.4°
